Find Starlink 3751

NORAD ID: 52289 Int'l Des: 2022-041 Owner: SPXS Country: US Constellation: starlink operational
LEOCIRCULAR

Live-Position

3D-Globus wird geladen...

Über Starlink 3751

Beschreibung wird geladen...

Nächste Überflüge

Passes for default location (London). Set your location on the main map for personalized predictions.

Höhenverlauf

Loading altitude history...

Zweizeiliger Elementsatz

1 52289U 22041AE 26106.20473250 .00000986 00000-0 80057-4 0 9990
2 52289 53.2179 290.7073 0001197 115.5660 244.5456 15.08832773220160
Epoch: 16. Apr. 2026 • Age: 11 hours

Aktueller Status

Höhe 551.4 km
Geschwindigkeit 7.59 km/s
Subsatellitenpunkt -34.31°S, 175.69°E
Startdatum 21. Apr. 2022
Alter 3.9 years
Typ internet

Technische Details

Klassifizierung Payload
Masse 297.00 kg
Trockenmasse 275.00 kg
Gesamtmasse 297.00 kg
Länge 0.20 m
Durchmesser 2.80 m
Spannweite 9.00 m
Form Box + pan
Hersteller SPXS
Bus-Typ Starlink
Phasenstatus In Orbit
Besitzer/Staat SPXS/US

Most Searched